| time (UTC) | temp F | wind direction | speed MPH | gust MPH | rain 1hr in | rain 24hr in | rain mn in | humidity % | barometer mb |
| 20260503051936 | 70 | 82 | 0.0 | 4.0 | 0.00 | 0.00 | 0.00 | 99 | 1014.5 |
| 20260503044936 | 70 | 45 | 0.0 | 5.0 | 0.00 | 0.00 | 0.00 | 99 | 1014.4 |
| 20260503041938 | 71 | 76 | 0.0 | 2.0 | 0.00 | 0.00 | 0.00 | 99 | 1014.3 |
| 20260503034937 | 71 | 157 | 0.0 | 0.0 | 0.00 | 0.00 | 0.00 | 99 | 1014.2 |
| 20260503031937 | 70 | 160 | 0.0 | 2.0 | 0.00 | 0.00 | 0.00 | 98 | 1013.3 |
| 20260503024941 | 70 | 144 | 0.0 | 3.0 | 0.00 | 0.00 | 0.00 | 98 | 1013.0 |
| 20260503024935 | 70 | 160 | 0.0 | 4.0 | 0.00 | 0.00 | 0.00 | 98 | 1012.8 |
| 20260503014935 | 70 | 160 | 0.0 | 0.0 | 0.00 | 0.00 | 0.00 | 98 | 1012.6 |
| 20260503011937 | 71 | 160 | 0.0 | 5.0 | 0.00 | 0.00 | 0.00 | 98 | 1012.1 |
| 20260503004937 | 71 | 157 | 2.0 | 6.0 | 0.00 | 0.00 | 0.00 | 98 | 1011.7 |
| 20260503001937 | 71 | 228 | 0.0 | 1.0 | 0.00 | 0.00 | 0.00 | 98 | 1011.7 |
| 20260502234937 | 71 | 139 | 0.0 | 2.0 | 0.00 | 0.00 | 0.00 | 98 | 1010.5 |
| 20260502231935 | 71 | 159 | 0.0 | 2.0 | 0.00 | 0.00 | 0.00 | 98 | 1010.9 |
| 20260502224935 | 71 | 181 | 0.0 | 7.0 | 0.00 | 0.00 | 0.00 | 98 | 1010.6 |
| 20260502224930 | 71 | 174 | 3.0 | 7.0 | 0.00 | 0.00 | 0.00 | 98 | 1011.3 |
| 20260502214931 | 71 | 158 | 2.0 | 7.0 | 0.00 | 0.00 | 0.00 | 97 | 1010.6 |
| 20260502211927 | 71 | 167 | 1.0 | 5.0 | 0.00 | 0.00 | 0.00 | 97 | 1010.8 |
| 20260502204928 | 71 | 136 | 0.0 | 1.0 | 0.00 | 0.00 | 0.00 | 97 | 1011.0 |
| 20260502201928 | 71 | 146 | 0.0 | 2.0 | 0.00 | 0.00 | 0.00 | 96 | 1010.8 |
| 20260502194926 | 73 | 304 | 2.0 | 6.0 | 0.00 | 0.00 | 0.00 | 89 | 1011.5 |
| 20260502191925 | 81 | 312 | 0.0 | 4.0 | 0.00 | 0.00 | 0.00 | 85 | 1011.2 |
| 20260502184925 | 81 | 221 | 1.0 | 6.0 | 0.00 | 0.00 | 0.00 | 84 | 1011.3 |
| 20260502181931 | 83 | 273 | 1.0 | 6.0 | 0.00 | 0.00 | 0.00 | 77 | 1011.5 |
| 20260502181925 | 83 | 280 | 1.0 | 5.0 | 0.00 | 0.00 | 0.00 | 80 | 1011.3 |
| 20260502161926 | 86 | 304 | 3.0 | 9.0 | 0.00 | 0.00 | 0.00 | 74 | 1011.5 |
| 20260502151927 | 84 | 241 | 1.0 | 6.0 | 0.00 | 0.00 | 0.00 | 72 | 1011.2 |
| 20260502151923 | 86 | 145 | 1.0 | 6.0 | 0.00 | 0.00 | 0.00 | 71 | 1011.6 |
| 20260502114922 | 71 | 179 | 3.0 | 7.0 | 0.00 | 0.00 | 0.00 | 96 | 1010.2 |
| 20260502111921 | 69 | 133 | 2.0 | 5.0 | 0.00 | 0.00 | 0.00 | 97 | 1010.3 |
| 20260502104922 | 69 | 186 | 1.0 | 4.0 | 0.00 | 0.00 | 0.00 | 97 | 1009.9 |
| 20260502101920 | 70 | 155 | 1.0 | 4.0 | 0.00 | 0.00 | 0.00 | 97 | 1009.7 |
| 20260502064917 | 70 | 141 | 0.0 | 0.0 | 0.00 | 0.00 | 0.00 | 96 | 1011.0 |